Weather History for Belize, Belize

Change the Weather History Date:

Sunday, November 16, 2014

  Actual Average Record
Temperature  
Mean Temperature 78 °F -  
Max Temperature 84 °F 83 °F 89 °F (2002)
Min Temperature 72 °F 70 °F 68 °F (1999)
Cooling Degree Days 13    
Growing Degree Days 28 (Base 50)    
Moisture  
Dew Point 74 °F    
Average Humidity 90    
Maximum Humidity 100    
Minimum Humidity 74    
Precipitation  
Precipitation 0.16 in 0.23 in - ()
Sea Level Pressure  
Sea Level Pressure 29.99 in    
Wind  
Wind Speed 3 mph ()    
Max Wind Speed 8 mph    
Max Gust Speed -    
Visibility 5.3 miles    
Events Fog , Rain    
Averages and records for this station are not official NWS values.
T = Trace of Precipitation, MM = Missing Value Source: Averaged Metar Reports

Daily Weather History Graph

Daily Weather History Graph

Search for Another Location

Airport:

Trip Planner

Search our weather history database for the weather conditions in past years. The results will help you decide how hot, cold, wet, or windy it might be!

Date:

Astronomy

Nov. 16, 2014 Rise Set
Actual Time 5:58 AM CST 5:16 PM CST
Civil Twilight 5:36 AM CST 5:39 PM CST
Nautical Twilight 5:09 AM CST 6:06 PM CST
Astronomical Twilight 4:43 AM CST 6:32 PM CST
Moon 12:55 AM CST (11/16) 1:24 PM CST (11/16)
Length of Visible Light 12h 03m
Length of Day
11h 17m
Waning Crescent, 31% of the Moon is Illuminated
Nov 16
Waning Crescent
Nov 22
New
Nov 29
First Quarter
Dec 6
Full
Dec 14
Last Quarter

Hourly Weather History & Observations

Time (CST) Temp. Heat Index Dew Point Humidity Pressure Visibility Wind Dir Wind Speed Gust Speed Precip Events Conditions
12:00 AM 74 °F - 72 °F 93% 30.03 in 12 mi West 3.5 mph - - Rain Light Rain Showers
5:00 AM 73.4 °F - 73.4 °F 100% 30.00 in 6.2 mi NW 2.3 mph - N/A   Mostly Cloudy
6:00 AM 73 °F - 72 °F 97% 30.01 in 12 mi WSW 4.5 mph - -   Mist
6:00 AM 73.4 °F - 71.6 °F 94% 30.00 in 5.6 mi WSW 2.3 mph - N/A   Scattered Clouds
6:20 AM 73.4 °F - 71.6 °F 94% 30.00 in 1.2 mi West 3.5 mph - N/A   Scattered Clouds
6:40 AM 73.4 °F - 71.6 °F 94% 30.01 in 0.6 mi WNW 3.5 mph - N/A   Scattered Clouds
7:00 AM 73.4 °F - 73.4 °F 100% 30.02 in 0.4 mi West 2.3 mph - N/A Fog Fog
7:30 AM 73.4 °F - 73.4 °F 100% 30.03 in 0.9 mi West 4.6 mph - N/A   Mostly Cloudy
7:36 AM 73.4 °F - 73.4 °F 100% 30.04 in 1.9 mi WNW 4.6 mph - N/A   Mostly Cloudy
8:00 AM 75.2 °F - 73.4 °F 94% 30.05 in 3.7 mi West 3.5 mph - N/A   Mostly Cloudy
9:00 AM 77.0 °F - 75.2 °F 94% 30.06 in 5.6 mi WNW 3.5 mph - N/A   Mostly Cloudy
9:13 AM 77.0 °F - 75.2 °F 94% 30.05 in 6.2 mi WNW 3.5 mph - N/A   Mostly Cloudy
10:00 AM 78.8 °F - 75.2 °F 89% 30.03 in 6.2 mi Calm Calm - N/A Rain Light Rain
11:00 AM 80.6 °F 86.2 °F 75.2 °F 84% 30.00 in 6.2 mi Calm Calm - N/A   Mostly Cloudy
12:00 PM 82.4 °F 89.5 °F 75.2 °F 79% 29.97 in 6.2 mi NE 3.5 mph - N/A   Mostly Cloudy
1:00 PM 82.4 °F 89.5 °F 75.2 °F 79% 29.93 in 6.2 mi ENE 5.8 mph - N/A   Scattered Clouds
2:00 PM 82.4 °F 89.5 °F 75.2 °F 79% 29.91 in 6.2 mi ENE 6.9 mph - N/A   Partly Cloudy
3:00 PM 84.2 °F 92.3 °F 75.2 °F 74% 29.90 in 6.2 mi ENE 8.1 mph - N/A   Scattered Clouds
4:00 PM 84.2 °F 92.3 °F 75.2 °F 74% 29.90 in 6.2 mi East 5.8 mph - N/A   Partly Cloudy
5:00 PM 82.4 °F 90.9 °F 77.0 °F 84% 29.90 in 6.2 mi East 5.8 mph - N/A   Partly Cloudy
6:00 PM 78.8 °F - 77.0 °F 94% 29.91 in 6.2 mi East 3.5 mph - N/A   Partly Cloudy